Date String (YYYY-MM-DD hh:mm:ss) UTC,Instrument flags,Ambient pressure (hPa),Sample flow (lpm),Bypass flow (lpm),Sample temperature (°C),Ambient temperature (°C),ASC tube jacket temperature (°C),LED temperature (°C),Box temperature (°C),Sample RH (%),Span deviation,Mass concentration (μg/m³),Mass concentration (μg/m³),Mass concentration (μg/m³)
DateTimeUTC,F1_M11,P_M11,Q1_M11,Q2_M11,T1_M11,T2_M11,T3_M11,T4_M11,T5_M11,U1_M11,ZSPAN_M11,X0_M11,X2_M11,X1_M11
2022-09-19 09:00:00,,0825.6,5.01,0.00,30.4,29.1,00.0,39.1,32.2,17.3,0000.0,0012.07,0004.72,0004.10
2022-09-19 09:01:00,,0825.6,4.99,0.00,30.4,29.1,00.0,39.1,32.2,17.2,0000.0,0010.93,0004.70,0004.08
2022-09-19 09:02:00,,0825.6,5.01,0.00,30.4,29.1,00.0,39.2,32.2,17.5,0000.0,0011.44,0004.72,0004.08
2022-09-19 09:03:00,,0825.6,4.99,0.00,30.4,29.1,00.0,39.2,32.3,17.6,0000.0,0011.14,0004.75,0004.09
2022-09-19 09:04:00,,0825.6,4.99,0.00,30.4,29.1,00.0,39.2,32.3,17.8,0000.0,0011.74,0004.77,0004.10
2022-09-19 09:05:00,,0825.6,5.01,0.00,30.5,29.2,00.0,39.2,32.3,18.0,0000.0,0011.79,0004.77,0004.12
2022-09-19 09:06:00,,0825.6,4.99,0.00,30.5,29.2,00.0,39.2,32.3,17.9,0000.0,0011.46,0004.78,0004.15
2022-09-19 09:07:00,,0825.6,5.00,0.00,30.5,29.2,00.0,39.2,32.3,17.9,0000.0,0011.61,0004.80,0004.18
2022-09-19 09:08:00,,0825.6,5.00,0.00,30.5,29.2,00.0,39.2,32.3,18.0,0000.0,0011.59,0004.78,0004.20
2022-09-19 09:09:00,,0825.6,4.99,0.00,30.5,29.2,00.0,39.2,32.3,18.0,0000.0,0011.94,0004.75,0004.21
2022-09-19 09:10:00,,0825.6,5.01,0.00,30.5,29.2,00.0,39.2,32.4,18.2,0000.0,0011.82,0004.73,0004.22
2022-09-19 09:11:00,,0825.7,4.99,0.00,30.6,29.2,00.0,39.3,32.4,18.1,0000.0,0012.12,0004.76,0004.24
2022-09-19 09:12:00,,0825.6,5.01,0.00,30.6,29.2,00.0,39.3,32.3,18.4,0000.0,0012.16,0004.81,0004.27
2022-09-19 09:13:00,,0825.6,4.98,0.00,30.6,29.2,00.0,39.3,32.3,18.5,0000.0,0012.27,0004.88,0004.30
2022-09-19 09:14:00,,0825.6,5.01,0.00,30.6,29.2,00.0,39.3,32.4,18.3,0000.0,0012.73,0004.88,0004.32
2022-09-19 09:15:00,,0825.6,4.98,0.00,30.6,29.2,00.0,39.3,32.4,18.2,0000.0,0012.32,0004.90,0004.32
2022-09-19 09:16:00,,0825.7,5.01,0.00,30.6,29.2,00.0,39.3,32.4,18.9,0000.0,0012.13,0004.97,0004.35
2022-09-19 09:17:00,,0825.7,4.99,0.00,30.6,29.2,00.0,39.4,32.4,19.0,0000.0,0012.61,0005.01,0004.37
2022-09-19 09:18:00,,0825.7,5.01,0.00,30.6,29.2,00.0,39.4,32.4,19.1,0000.0,0012.35,0005.00,0004.39
2022-09-19 09:19:00,,0825.8,5.00,0.00,30.6,29.2,00.0,39.4,32.4,18.9,0000.0,0012.43,0005.08,0004.41
2022-09-19 09:20:00,,0825.8,4.99,0.00,30.6,29.2,00.0,39.4,32.4,18.8,0000.0,0011.87,0005.13,0004.45
2022-09-19 09:21:00,,0825.7,5.01,0.00,30.6,29.2,00.0,39.4,32.4,18.7,0000.0,0012.01,0005.12,0004.45
2022-09-19 09:22:00,,0825.7,4.98,0.00,30.6,29.2,00.0,39.4,32.4,18.7,0000.0,0011.82,0005.14,0004.46
2022-09-19 09:23:00,,0825.9,5.01,0.00,30.6,29.2,00.0,39.4,32.4,18.7,0000.0,0011.60,0005.11,0004.45
2022-09-19 09:24:00,,0825.7,4.99,0.00,30.6,29.2,00.0,39.4,32.4,18.6,0000.0,0010.54,0005.04,0004.43
2022-09-19 09:25:00,,0825.7,5.00,0.00,30.6,29.2,00.0,39.4,32.4,18.3,0000.0,0009.93,0005.04,0004.43
2022-09-19 09:26:00,,0825.7,5.01,0.00,30.6,29.2,00.0,39.4,32.4,18.2,0000.0,0009.66,0005.02,0004.43
2022-09-19 09:27:00,,0825.7,5.01,0.00,30.6,29.2,00.0,39.4,32.4,18.2,0000.0,0009.49,0004.97,0004.41
2022-09-19 09:28:00,,0825.7,4.99,0.00,30.6,29.2,00.0,39.4,32.4,18.6,0000.0,0009.13,0004.96,0004.40
2022-09-19 09:29:00,,0825.7,5.01,0.00,30.6,29.2,00.0,39.4,32.4,18.7,0000.0,0009.25,0005.02,0004.41
2022-09-19 09:30:00,,0825.7,4.98,0.00,30.6,29.2,00.0,39.4,32.4,18.8,0000.0,0009.48,0005.01,0004.40
2022-09-19 09:31:00,,0826.0,5.02,0.00,30.6,29.2,00.0,39.4,32.4,19.0,0000.0,0010.20,0005.06,0004.40
2022-09-19 09:32:00,,0826.1,4.99,0.00,30.7,29.2,00.0,39.4,32.4,19.0,0000.0,0010.50,0005.12,0004.43
2022-09-19 09:33:00,,0825.9,5.01,0.00,30.7,29.3,00.0,39.4,32.4,19.0,0000.0,0010.49,0005.14,0004.45
2022-09-19 09:34:00,,0826.2,4.99,0.00,30.7,29.3,00.0,39.5,32.4,18.9,0000.0,0010.54,0005.19,0004.49
2022-09-19 09:35:00,,0825.9,5.00,0.00,30.7,29.2,00.0,39.5,32.4,18.9,0000.0,0010.52,0005.24,0004.52
2022-09-19 09:36:00,,0826.1,5.00,0.00,30.7,29.2,00.0,39.5,32.4,18.9,0000.0,0010.58,0005.25,0004.54
2022-09-19 09:37:00,,0825.7,5.00,0.00,30.7,29.3,00.0,39.5,32.4,18.9,0000.0,0010.59,0005.29,0004.57
2022-09-19 09:38:00,,0826.0,4.99,0.00,30.7,29.3,00.0,39.5,32.5,18.8,0000.0,0010.62,0005.33,0004.60
2022-09-19 09:39:00,,0825.8,5.01,0.00,30.7,29.3,00.0,39.5,32.5,18.9,0000.0,0010.70,0005.36,0004.62
2022-09-19 09:40:00,,0826.1,5.00,0.00,30.7,29.3,00.0,39.5,32.5,18.9,0000.0,0010.89,0005.37,0004.64
2022-09-19 09:41:00,,0826.0,4.99,0.00,30.7,29.3,00.0,39.5,32.5,18.9,0000.0,0010.64,0005.37,0004.66
2022-09-19 09:42:00,,0825.9,5.01,0.00,30.7,29.3,00.0,39.5,32.5,18.9,0000.0,0010.45,0005.39,0004.67
2022-09-19 09:43:00,,0825.9,4.99,0.00,30.7,29.3,00.0,39.5,32.5,18.9,0000.0,0009.91,0005.37,0004.67
2022-09-19 09:44:00,,0825.9,5.01,0.00,30.7,29.3,00.0,39.5,32.5,18.7,0000.0,0010.05,0005.41,0004.67
2022-09-19 09:45:00,,0825.7,4.99,0.00,30.7,29.3,00.0,39.5,32.5,18.7,0000.0,0010.24,0005.43,0004.66
2022-09-19 09:46:00,,0825.7,5.01,0.00,30.7,29.3,00.0,39.5,32.5,18.7,0000.0,0010.34,0005.42,0004.65
2022-09-19 09:47:00,,0825.7,4.99,0.00,30.7,29.3,00.0,39.5,32.5,18.7,0000.0,0010.88,0005.44,0004.65
2022-09-19 09:48:00,,0825.7,5.01,0.00,30.7,29.3,00.0,39.5,32.5,18.8,0000.0,0012.07,0005.45,0004.65
2022-09-19 09:49:00,,0825.7,4.99,0.00,30.7,29.3,00.0,39.5,32.5,18.8,0000.0,0012.25,0005.44,0004.65
2022-09-19 09:50:00,,0825.7,5.01,0.00,30.7,29.3,00.0,39.5,32.5,18.9,0000.0,0012.08,0005.39,0004.65
2022-09-19 09:51:00,,0826.0,4.99,0.00,30.8,29.3,00.0,39.5,32.5,18.8,0000.0,0011.77,0005.35,0004.64
2022-09-19 09:52:00,,0826.1,5.01,0.00,30.8,29.3,00.0,39.5,32.5,18.8,0000.0,0012.20,0005.35,0004.64
2022-09-19 09:53:00,,0826.1,5.00,0.00,30.8,29.3,00.0,39.5,32.5,18.8,0000.0,0011.97,0005.33,0004.63
2022-09-19 09:54:00,,0826.1,4.99,0.00,30.8,29.3,00.0,39.5,32.5,18.9,0000.0,0012.03,0005.29,0004.63
2022-09-19 09:55:00,,0825.9,5.00,0.00,30.8,29.3,00.0,39.5,32.5,18.9,0000.0,0012.42,0005.25,0004.63
2022-09-19 09:56:00,,0825.7,5.01,0.00,30.8,29.4,00.0,39.5,32.5,18.9,0000.0,0012.66,0005.25,0004.65
2022-09-19 09:57:00,,0825.7,5.00,0.00,30.8,29.4,00.0,39.6,32.6,18.9,0000.0,0012.84,0005.26,0004.66
2022-09-19 09:58:00,,0825.7,5.00,0.00,30.8,29.4,00.0,39.6,32.6,18.9,0000.0,0012.62,0005.27,0004.67
2022-09-19 09:59:00,,0825.7,5.00,0.00,30.8,29.4,00.0,39.6,32.6,18.9,0000.0,0011.52,0005.27,0004.68
